User: anonymous   Login
Location: Unspecified
(0.0000°N, 0.0000°E)
Time: 00:12:36
(UTC+00:00)
Language:

STARLINK-34693 - Orbit

View from above orbital plane
View from above orbital plane
View from above satellite
View from above satellite

Ground track
Ground track

The orbit is defined by the following mean orbital elements,

1 64793U          26145.40696775 +.00000000 +00000-0 +15336-3 0 00005
2 64793  70.0007 301.2074 0003058 264.3806  95.7004 14.98336916    02
Epoch (UTC): 25 May 2026 09:46:02
Eccentricity: 0.0003058
inclination: 70.0007°
perigee height: 570 km
apogee height: 574 km
right ascension of ascending node: 301.2074°
argument of perigee: 264.3806°
revolutions per day: 14.98336916
mean anomaly at epoch: 95.7004°

The dashed part of the orbit path shows where the satellite is in the earth's shadow,  

DLR